TimeMST,TemperatureF,Dew PointF,Humidity,Sea Level PressureIn,VisibilityMPH,Wind Direction,Wind SpeedMPH,Gust SpeedMPH,PrecipitationIn,Events,Conditions,WindDirDegrees,DateUTC
12:53 AM,26.1,16.0,66,29.99,10.0,SW,5.8,-,N/A,,Overcast,220,2013-01-29 07:53:00
1:53 AM,26.1,16.0,66,29.97,10.0,SW,5.8,-,N/A,,Overcast,220,2013-01-29 08:53:00
2:53 AM,26.1,17.1,69,29.96,10.0,SSE,9.2,-,N/A,,Overcast,160,2013-01-29 09:53:00
3:53 AM,26.1,17.1,69,29.94,6.0,South,12.7,-,0.00,Snow,Light Snow,170,2013-01-29 10:53:00
4:53 AM,25.0,19.0,78,29.93,2.5,South,13.8,-,0.00,Snow,Light Snow,170,2013-01-29 11:53:00
5:16 AM,25.0,19.9,81,29.87,3.0,South,12.7,-,0.00,Snow,Light Snow,180,2013-01-29 12:16:00
5:53 AM,25.0,19.0,78,29.93,3.0,South,12.7,21.9,0.00,Snow,Light Snow,170,2013-01-29 12:53:00
6:45 AM,25.0,19.0,78,29.87,3.0,SSE,10.4,-,0.00,Snow,Light Snow,160,2013-01-29 13:45:00
6:53 AM,25.0,19.0,78,29.94,4.0,SSE,12.7,-,0.00,Snow,Light Snow,160,2013-01-29 13:53:00
7:53 AM,26.1,18.0,71,29.94,8.0,SSE,15.0,-,0.00,Snow,Light Snow,160,2013-01-29 14:53:00
8:01 AM,26.1,18.0,71,29.88,2.5,South,13.8,-,0.00,Snow,Light Snow,170,2013-01-29 15:01:00
8:51 AM,24.8,19.4,80,29.88,3.0,SSE,17.3,-,0.00,Snow,Light Snow,160,2013-01-29 15:51:00
8:53 AM,25.0,19.9,81,29.95,3.0,South,16.1,-,0.00,Snow,Light Snow,170,2013-01-29 15:53:00
9:53 AM,25.0,19.9,81,29.96,3.0,South,17.3,-,0.00,Snow,Light Snow,170,2013-01-29 16:53:00
10:40 AM,25.0,19.9,81,29.91,2.5,South,12.7,-,0.00,Snow,Light Snow,170,2013-01-29 17:40:00
10:53 AM,25.0,21.0,85,29.99,1.5,South,13.8,-,0.01,Snow,Light Snow,170,2013-01-29 17:53:00
11:18 AM,25.0,21.0,85,29.93,0.8,SSE,11.5,-,0.01,Snow,Light Snow,160,2013-01-29 18:18:00
11:27 AM,25.0,21.9,88,29.93,0.8,SSE,11.5,-,0.01,Snow,Light Snow,160,2013-01-29 18:27:00
11:53 AM,25.0,21.9,88,30.01,0.8,South,8.1,-,0.03,Snow,Light Snow,170,2013-01-29 18:53:00
12:49 PM,26.6,23.0,86,29.95,1.0,SSW,9.2,-,0.03,Snow,Light Snow,200,2013-01-29 19:49:00
12:53 PM,26.1,23.0,88,30.02,1.0,SSW,11.5,-,0.03,Snow,Light Snow,200,2013-01-29 19:53:00
1:05 PM,26.1,23.0,88,29.96,2.5,South,6.9,-,0.00,Snow,Light Snow,190,2013-01-29 20:05:00
1:53 PM,27.0,23.0,85,30.03,10.0,South,8.1,-,0.00,,Mostly Cloudy,180,2013-01-29 20:53:00
2:33 PM,27.0,23.0,85,29.98,10.0,SSE,6.9,-,N/A,,Mostly Cloudy,150,2013-01-29 21:33:00
2:53 PM,28.0,23.0,81,30.05,10.0,SSE,5.8,-,N/A,,Mostly Cloudy,150,2013-01-29 21:53:00
3:53 PM,27.0,21.9,81,30.08,10.0,SSE,4.6,-,N/A,,Mostly Cloudy,160,2013-01-29 22:53:00
4:53 PM,30.0,25.0,82,30.10,10.0,WNW,5.8,-,N/A,,Mostly Cloudy,290,2013-01-29 23:53:00
5:53 PM,25.0,23.0,92,30.15,10.0,West,5.8,-,N/A,,Mostly Cloudy,280,2013-01-30 00:53:00
6:53 PM,24.1,21.9,91,30.19,10.0,Calm,Calm,-,N/A,,Mostly Cloudy,0,2013-01-30 01:53:00
7:53 PM,25.0,23.0,92,30.20,10.0,East,3.5,-,N/A,,Mostly Cloudy,100,2013-01-30 02:53:00
8:35 PM,26.1,24.1,92,30.15,10.0,Calm,Calm,-,N/A,,Overcast,0,2013-01-30 03:35:00
8:53 PM,27.0,25.0,92,30.23,8.0,Calm,Calm,-,N/A,,Overcast,0,2013-01-30 03:53:00
9:04 PM,27.0,25.0,92,30.16,6.0,Calm,Calm,-,0.00,Snow,Light Snow,0,2013-01-30 04:04:00
9:23 PM,27.0,25.0,92,30.16,2.0,Calm,Calm,-,0.00,Snow,Light Snow,0,2013-01-30 04:23:00
9:51 PM,26.6,24.8,93,30.18,2.0,Calm,Calm,-,0.00,Snow,Light Snow,0,2013-01-30 04:51:00
9:53 PM,27.0,25.0,92,30.25,2.0,Calm,Calm,-,0.00,Snow,Light Snow,0,2013-01-30 04:53:00
10:26 PM,27.0,26.1,96,30.16,2.0,SE,4.6,-,0.01,Snow,Light Snow,130,2013-01-30 05:26:00
10:53 PM,28.0,26.1,92,30.25,2.0,SE,5.8,-,0.01,Snow,Light Snow,140,2013-01-30 05:53:00
11:01 PM,26.6,26.6,100,30.17,4.0,SE,5.8,-,N/A,Snow,Light Snow,140,2013-01-30 06:01:00
11:28 PM,28.0,26.1,92,30.18,4.0,ESE,3.5,-,0.00,Snow,Light Snow,120,2013-01-30 06:28:00
11:53 PM,27.0,26.1,96,30.26,4.0,SE,3.5,-,0.00,Snow,Light Snow,130,2013-01-30 06:53:00